Regional Weather Roundup
Issued by NWS

Home | Current Version | Previous Version | Graphics & Text | Print | Product List | Glossary On
Versions: 1 2 3 4 5 6 7 8 9 10 11 12 13 14 15 16 17 18 19 20 21 22 23 24 25 26 27 28 29 30
000
ASUS45 KGTF 171810
RWRMT
MONTANA HOURLY WEATHER ROUNDUP
NATIONAL WEATHER SERVICE GREAT FALLS MT
1200 PM MDT FRI APR 17 2015

NOTE: "FAIR" INDICATES FEW OR NO CLOUDS BELOW 12000 FEET WITH NO
SIGNIFICANT WEATHER AND/OR OBSTRUCTIONS TO VISIBILITY.

MTZ001>007-043-171900-
WEST OF THE DIVIDE

CITY           SKY/WX    TMP DP  RH WIND       PRES   REMARKS
KALISPELL      CLEAR     56  33  42 CALM      30.18F
MISSOULA       SUNNY     53  30  41 CALM      30.20F
BUTTE          SUNNY     51  24  34 CALM      30.22F
DEER LODGE       N/A     54  27  35 E3        30.24F
EUREKA           N/A     55  34  44 CALM      30.17F
HAMILTON         N/A     57  27  30 W1        30.19F
LIBBY            N/A     55  32  41 NW6       30.17F
$$

MTZ008-052>055-171900-
SOUTHWEST MONTANA

CITY           SKY/WX    TMP DP  RH WIND       PRES   REMARKS
BOZEMAN        SUNNY     51  30  44 CALM      30.23F
DILLON         SUNNY     50  25  37 CALM      30.22F
$$

MTZ009-010-012-014-046-048-049-054-171900-
EAST SLOPES AND CENTRAL MONTANA

CITY           SKY/WX    TMP DP  RH WIND       PRES   REMARKS
CUT BANK       SUNNY     57  28  33 S7        30.15F
GREAT FALLS    SUNNY     59  29  31 SW9       30.17F
MALMSTROM AFB  SUNNY     57  29  33 SW8       30.17F
HELENA         SUNNY     53  28  38 VRB5      30.21F
$$

MTZ011-013-016-021-045-047-050-051-171900-
NORTH CENTRAL MONTANA

CITY           SKY/WX    TMP DP  RH WIND       PRES   REMARKS
HAVRE          SUNNY     62  30  29 E15       30.14F
LEWISTOWN      SUNNY     60  28  29 CALM      30.19F
FORT BENTON      N/A     61  28  29 S7        30.17F
$$

MTZ017>020-022>042-056>058-061-062-171900-
EASTERN PLAINS

CITY           SKY/WX    TMP DP  RH WIND       PRES   REMARKS
BAKER          SUNNY     61  27  27 VRB3      30.20F
BILLINGS       SUNNY     58  34  40 SW8       30.18F
GLASGOW        SUNNY     62  28  27 VRB6      30.17F
JORDAN           N/A     62  25  24 W5        30.16F
LIVINGSTON     SUNNY     57  25  29 CALM      30.19F
MILES CITY     SUNNY     63  31  30 VRB6      30.17F
SIDNEY         SUNNY     66  27  22 CALM      30.17F
WOLF POINT     SUNNY     65  30  27 VRB3      30.17F
BIG TIMBER       N/A     55  27  33 W8        30.20F
FORSYTH          N/A     61  30  31 NW6       30.17F
PLENTYWOOD       N/A     63  27  25 N7        30.18S
POPLAR           N/A     63  27  25 NE3       30.18F
$$

REGIONAL REPORTS...DAKOTAS

CITY           SKY/WX    TMP DP  RH WIND       PRES   REMARKS
WILLISTON      SUNNY     67  25  20 VRB3      30.17F
MINOT          SUNNY     68  25  19 NW16      30.12S
DICKINSON      SUNNY     65  17  15 N10       30.16F
BEACH          FAIR      63  23  22 W6        30.19F
CROSBY         FAIR      61  28  29 N13       30.17F
WATFORD CITY   FAIR      66  25  20 NW12G20   30.14F
BISMARCK       SUNNY     69  20  15 NW12      30.15F
GRAND FORKS    SUNNY     71  20  14 W20G26    30.06F
FARGO          SUNNY     71  22  15 MISG      30.09F
BUFFALO SD       N/A     61  24  24 VRB3      30.13F
RAPID CITY     CLOUDY    55  34  45 N9        30.20F
$$

REGIONAL REPORTS...WYOMING/IDAHO/WASHINGTON

CITY           SKY/WX    TMP DP  RH WIND       PRES   REMARKS
GILLETTE       MOSUNNY   56  32  40 NE7       30.18F
SHERIDAN       SUNNY     57  30  35 VRB5      30.19F
BUFFALO WY     SUNNY     55  30  38 MISG      30.21F
CODY           SUNNY     52  32  46 NE8       30.20F
YELLOWSTONE LA   N/A     46  14  27 E5        30.23F
IDAHO FALLS    SUNNY     55  27  34 VRB6      30.17F
SALMON         SUNNY     52  25  35 CALM      30.20F
BOISE          SUNNY     61  30  31 CALM      30.17F
SPOKANE        PTSUNNY   58  37  45 N3        30.18F
$$

REGIONAL REPORTS...ALBERTA

CITY           SKY/WX    TMP DP  RH WIND       PRES   REMARKS
EDMONTON       CLOUDY    52  25  35 S18G25    29.98F
$$

REGIONAL REPORTS...SASKATCHEWAN

CITY           SKY/WX    TMP DP  RH WIND       PRES   REMARKS
SWIFT CURRENT  SUNNY     57  27  30 SE9       30.16F
REGINA         SUNNY     55  28  35 VRB2      30.19F
SASKATOON      MOSUNNY   54  23  30 NW5       30.20F
$$



USA.gov is the U.S. government's official web portal to all federal, state and local government web resources and services.